When you browse on this site, cookies collect data to enhance your experience and personalize the content and advertising you see.
Visit our Privacy Policy to learn more. By continuing to use the site, you agree to this use of cookies and data.
  • In Spain
  • List of Countries
  • For 7 days
  • Water Temperature
  • Satellite Maps
  • Weather Map
  • Weather Widgets
  • user-avatar
    Login

    Hourly Weather Chervonokam'yane

    Today, 19 May, Sunday

    Time Temperature Precipitation Wind Pressure Humidity
    00:00 +17°C° 0 mm 5 mps 745 mmHg 71%
    01:00 +17°C° 0 mm 5 mps 745 mmHg 70%
    02:00 +16°C° 0 mm 5 mps 744 mmHg 68%
    03:00 +16°C° 0 mm 5 mps 745 mmHg 68%
    04:00 +15°C° 0 mm 5 mps 745 mmHg 68%
    05:00 +15°C° 0 mm 5 mps 745 mmHg 69%
    06:00 +17°C° 0 mm 6 mps 745 mmHg 64%
    07:00 +19°C° 0 mm 6 mps 745 mmHg 59%
    08:00 +21°C° 0 mm 6 mps 746 mmHg 55%
    09:00 +22°C° 0 mm 7 mps 746 mmHg 52%
    10:00 +23°C° 0 mm 7 mps 746 mmHg 50%
    11:00 +26°C° 0 mm 7 mps 746 mmHg 47%
    12:00 +26°C° 0 mm 6 mps 746 mmHg 47%
    13:00 +27°C° 0 mm 6 mps 746 mmHg 46%
    14:00 +27°C° 0 mm 6 mps 746 mmHg 45%
    15:00 +27°C° 0 mm 6 mps 746 mmHg 47%
    16:00 +26°C° 0 mm 5 mps 746 mmHg 49%
    17:00 +26°C° 0 mm 5 mps 746 mmHg 51%
    18:00 +23°C° 0 mm 5 mps 746 mmHg 54%
    19:00 +22°C° 0 mm 5 mps 746 mmHg 57%
    20:00 +20°C° 0 mm 5 mps 747 mmHg 60%
    21:00 +19°C° 0 mm 5 mps 747 mmHg 61%
    22:00 +19°C° 0 mm 4 mps 747 mmHg 62%
    23:00 +18°C° 0 mm 4 mps 747 mmHg 63%

    Tomorrow, 20 May, Monday

    Time Temperature Precipitation Wind Pressure Humidity
    00:00 +18°C° 0 mm 4 mps 748 mmHg 65%
    01:00 +16°C° 0 mm 5 mps 748 mmHg 67%
    02:00 +16°C° 0 mm 5 mps 748 mmHg 69%
    03:00 +15°C° 0 mm 5 mps 748 mmHg 71%
    04:00 +15°C° 0 mm 5 mps 748 mmHg 73%
    05:00 +15°C° 0 mm 5 mps 749 mmHg 75%
    06:00 +17°C° 0 mm 5 mps 749 mmHg 69%
    07:00 +20°C° 0 mm 6 mps 749 mmHg 63%
    08:00 +21°C° 0 mm 6 mps 750 mmHg 58%
    09:00 +22°C° 0 mm 6 mps 750 mmHg 55%
    10:00 +23°C° 0 mm 6 mps 750 mmHg 53%
    11:00 +24°C° 0 mm 6 mps 750 mmHg 50%
    12:00 +26°C° 0 mm 6 mps 750 mmHg 50%
    13:00 +26°C° 0 mm 5 mps 750 mmHg 50%
    14:00 +26°C° 0 mm 5 mps 749 mmHg 50%
    15:00 +26°C° 0 mm 5 mps 749 mmHg 51%
    16:00 +26°C° 0 mm 4 mps 749 mmHg 53%
    17:00 +26°C° 0 mm 4 mps 749 mmHg 55%
    18:00 +23°C° 0 mm 4 mps 749 mmHg 58%
    19:00 +22°C° 0 mm 4 mps 749 mmHg 60%
    20:00 +20°C° 0 mm 4 mps 749 mmHg 63%
    21:00 +20°C° 0 mm 4 mps 750 mmHg 66%
    22:00 +19°C° 0 mm 4 mps 750 mmHg 68%
    23:00 +18°C° 0 mm 4 mps 750 mmHg 71%

    Day after tomorrow, 21 May, Tuesday

    Time Temperature Precipitation Wind Pressure Humidity
    00:00 +18°C° 0 mm 4 mps 750 mmHg 70%
    01:00 +17°C° 0 mm 4 mps 750 mmHg 69%
    02:00 +16°C° 0 mm 5 mps 750 mmHg 69%
    03:00 +15°C° 0 mm 5 mps 750 mmHg 69%
    04:00 +15°C° 0 mm 5 mps 750 mmHg 70%
    05:00 +15°C° 0 mm 5 mps 750 mmHg 71%
    06:00 +16°C° 0 mm 5 mps 750 mmHg 66%
    07:00 +19°C° 0 mm 6 mps 750 mmHg 60%
    08:00 +21°C° 0 mm 6 mps 751 mmHg 55%
    09:00 +22°C° 0 mm 6 mps 750 mmHg 52%
    10:00 +23°C° 0 mm 6 mps 750 mmHg 49%
    11:00 +24°C° 0 mm 6 mps 750 mmHg 46%
    12:00 +26°C° 0 mm 6 mps 750 mmHg 45%
    13:00 +26°C° 0 mm 7 mps 750 mmHg 44%
    14:00 +27°C° 0 mm 7 mps 749 mmHg 44%
    15:00 +26°C° 0 mm 6 mps 749 mmHg 46%
    16:00 +26°C° 0 mm 6 mps 749 mmHg 48%
    17:00 +26°C° 0 mm 5 mps 748 mmHg 51%
    18:00 +23°C° 0 mm 5 mps 748 mmHg 54%
    19:00 +22°C° 0 mm 5 mps 748 mmHg 57%
    20:00 +21°C° 0 mm 4 mps 748 mmHg 61%
    21:00 +20°C° 0.1 mm 4 mps 748 mmHg 62%
    22:00 +20°C° 0.1 mm 4 mps 748 mmHg 63%
    23:00 +19°C° 0.1 mm 4 mps 748 mmHg 65%

    22 May, Wednesday

    Time Temperature Precipitation Wind Pressure Humidity
    00:00 +18°C° 1.1 mm 4 mps 748 mmHg 71%
    01:00 +18°C° 1.1 mm 4 mps 748 mmHg 77%
    02:00 +17°C° 1.1 mm 4 mps 747 mmHg 83%
    03:00 +17°C° 0.9 mm 4 mps 747 mmHg 85%
    04:00 +15°C° 0.9 mm 4 mps 747 mmHg 86%
    05:00 +15°C° 0.9 mm 4 mps 747 mmHg 88%
    06:00 +15°C° 1.7 mm 4 mps 747 mmHg 88%
    07:00 +15°C° 1.7 mm 4 mps 746 mmHg 89%
    08:00 +15°C° 1.7 mm 4 mps 746 mmHg 89%
    09:00 +15°C° 1.4 mm 4 mps 746 mmHg 89%
    10:00 +16°C° 1.4 mm 5 mps 746 mmHg 88%
    11:00 +16°C° 1.4 mm 5 mps 746 mmHg 88%
    12:00 +17°C° 0.2 mm 5 mps 746 mmHg 84%
    13:00 +17°C° 0.2 mm 5 mps 745 mmHg 80%
    14:00 +19°C° 0.2 mm 5 mps 745 mmHg 77%
    15:00 +20°C° 0.9 mm 5 mps 745 mmHg 76%
    16:00 +20°C° 0.9 mm 5 mps 744 mmHg 75%
    17:00 +20°C° 0.9 mm 4 mps 744 mmHg 75%
    18:00 +19°C° 0.5 mm 4 mps 744 mmHg 78%
    19:00 +19°C° 0.5 mm 4 mps 744 mmHg 81%
    20:00 +18°C° 0.5 mm 4 mps 744 mmHg 84%
    21:00 +17°C° 0 mm 4 mps 743 mmHg 86%
    22:00 +17°C° 0 mm 4 mps 743 mmHg 87%
    23:00 +15°C° 0 mm 4 mps 743 mmHg 89%

    23 May, Thursday

    Time Temperature Precipitation Wind Pressure Humidity
    00:00 +15°C° 0 mm 4 mps 743 mmHg 88%
    01:00 +14°C° 0 mm 3 mps 743 mmHg 87%
    02:00 +13°C° 0 mm 3 mps 743 mmHg 86%
    03:00 +13°C° 0.7 mm 3 mps 743 mmHg 88%
    04:00 +13°C° 0.7 mm 3 mps 743 mmHg 90%
    05:00 +14°C° 0.7 mm 2 mps 742 mmHg 92%
    06:00 +16°C° 0 mm 3 mps 743 mmHg 86%
    07:00 +18°C° 0 mm 3 mps 743 mmHg 81%
    08:00 +19°C° 0 mm 4 mps 743 mmHg 76%
    09:00 +21°C° 0.1 mm 4 mps 743 mmHg 69%
    10:00 +22°C° 0.1 mm 5 mps 743 mmHg 61%
    11:00 +23°C° 0.1 mm 6 mps 743 mmHg 54%
    12:00 +24°C° 0.2 mm 6 mps 742 mmHg 52%
    13:00 +26°C° 0.2 mm 6 mps 742 mmHg 49%
    14:00 +26°C° 0.2 mm 6 mps 742 mmHg 47%
    15:00 +24°C° 0.2 mm 6 mps 742 mmHg 52%
    16:00 +23°C° 0.2 mm 5 mps 742 mmHg 57%
    17:00 +22°C° 0.2 mm 4 mps 741 mmHg 62%
    18:00 +21°C° 0.5 mm 4 mps 741 mmHg 66%
    19:00 +20°C° 0.5 mm 3 mps 742 mmHg 71%
    20:00 +18°C° 0.5 mm 3 mps 742 mmHg 75%
    21:00 +18°C° 0 mm 3 mps 742 mmHg 78%
    22:00 +17°C° 0 mm 3 mps 742 mmHg 81%
    23:00 +16°C° 0 mm 3 mps 742 mmHg 83%

    24 May, Friday

    Time Temperature Precipitation Wind Pressure Humidity
    00:00 +16°C° 0 mm 3 mps 742 mmHg 86%
    01:00 +16°C° 0 mm 3 mps 742 mmHg 89%
    02:00 +14°C° 0 mm 3 mps 742 mmHg 91%
    03:00 +14°C° 0 mm 3 mps 742 mmHg 92%
    04:00 +14°C° 0 mm 3 mps 742 mmHg 92%
    05:00 +14°C° 0 mm 3 mps 742 mmHg 93%
    06:00 +17°C° 0 mm 3 mps 742 mmHg 86%
    07:00 +18°C° 0 mm 4 mps 742 mmHg 79%
    08:00 +20°C° 0 mm 4 mps 742 mmHg 72%
    09:00 +21°C° 0 mm 5 mps 742 mmHg 67%
    10:00 +22°C° 0 mm 5 mps 742 mmHg 62%
    11:00 +23°C° 0 mm 5 mps 742 mmHg 57%
    12:00 +23°C° 0 mm 5 mps 742 mmHg 56%
    13:00 +25°C° 0 mm 5 mps 742 mmHg 54%
    14:00 +25°C° 0 mm 5 mps 742 mmHg 53%
    15:00 +25°C° 0 mm 5 mps 742 mmHg 55%
    16:00 +23°C° 0 mm 4 mps 742 mmHg 56%
    17:00 +23°C° 0 mm 4 mps 741 mmHg 58%
    18:00 +21°C° 0.1 mm 3 mps 742 mmHg 64%
    19:00 +20°C° 0.1 mm 3 mps 742 mmHg 70%
    20:00 +18°C° 0.1 mm 2 mps 742 mmHg 75%
    21:00 +18°C° 0 mm 2 mps 742 mmHg 78%
    22:00 +18°C° 0 mm 1 mps 742 mmHg 81%
    23:00 +18°C° 0 mm 1 mps 742 mmHg 84%
    Show more